Location: Boitzum
(52.1496°N, 9.6943°E)
Time: 14:48:51
(UTC+00:00)

Cosmos 44 Rocket - Visible Passes

Search period start: 19 April 2026 00:00
Search period end: 29 April 2026 00:00
Orbit: 631 x 746 km, 65.1° (Epoch: 19 April)

Date Brightness Start Highest point End Pass type
(mag) Time Alt. Az. Time Alt. Az. Time Alt. Az.
19 Apr 5.5 00:12:57 14° ESE 00:13:01 14° ESE 00:15:42 10° ENE visible
19 Apr 3.4 01:51:31 37° SSW 01:53:33 73° SE 01:58:44 10° NE visible
19 Apr 4.6 03:30:46 10° W 03:35:25 34° NNW 03:40:09 10° NE visible
20 Apr 4.3 00:51:27 34° SE 00:52:05 35° ESE 00:56:45 10° NE visible
20 Apr 3.8 02:30:01 21° WSW 02:33:21 55° NW 02:38:29 10° NE visible
20 Apr 5.4 23:51:22 17° ESE 23:51:22 17° ESE 23:54:07 10° ENE visible
21 Apr 3.3 01:29:55 44° SSW 01:31:33 82° SE 01:36:46 10° NE visible
21 Apr 4.7 03:08:58 10° W 03:13:31 31° NNW 03:18:09 10° NE visible
22 Apr 4.0 00:29:47 40° SE 00:30:01 41° ESE 00:34:51 10° NE visible
22 Apr 4.0 02:08:21 22° WSW 02:11:25 49° NW 02:16:29 10° NE visible
22 Apr 5.2 23:29:36 19° E 23:29:36 19° E 23:32:25 10° ENE visible
23 Apr 3.3 01:08:10 50° SW 01:09:33 88° NW 01:14:47 10° NE visible
23 Apr 4.9 02:47:10 10° W 02:51:38 29° NNW 02:56:11 10° NE visible
24 Apr 3.8 00:07:57 47° ESE 00:07:59 47° ESE 00:12:56 10° NE visible
24 Apr 4.2 01:46:30 22° W 01:49:29 44° NW 01:54:29 10° NE visible
24 Apr 5.0 23:07:42 21° E 23:07:42 21° E 23:10:39 10° ENE visible
25 Apr 3.4 00:46:15 50° WSW 00:47:35 78° NW 00:52:48 10° NE visible
25 Apr 5.1 02:25:22 10° W 02:29:46 27° NNW 02:34:13 10° NE visible
25 Apr 3.6 23:45:57 54° SE 23:45:57 54° SE 23:51:00 10° NE visible
26 Apr 4.4 01:24:29 20° W 01:27:34 40° NW 01:32:29 10° NE visible
26 Apr 5.5 03:06:24 10° WNW 03:10:17 21° N 03:14:13 10° NE visible
26 Apr 4.8 22:45:36 25° E 22:45:36 25° E 22:48:50 10° ENE visible
27 Apr 3.5 00:24:09 46° WSW 00:25:37 70° NW 00:30:49 10° NE visible
27 Apr 5.2 02:03:35 10° WNW 02:07:53 26° NNW 02:12:15 10° NE visible
27 Apr 5.7 21:45:12 10° E 21:45:12 10° E 21:45:24 10° E visible
27 Apr 3.4 23:23:45 62° SE 23:23:55 62° SE 23:29:03 10° NE visible
28 Apr 4.6 01:02:17 18° W 01:05:39 37° NNW 01:10:30 10° NE visible
28 Apr 5.7 02:44:37 10° NW 02:48:27 20° N 02:52:19 10° NE visible
28 Apr 4.5 22:23:17 29° E 22:23:17 29° E 22:26:59 10° ENE visible
